Wind_Speed
22 22 22 24 26 26 26 28 28 28 31 33 33 34 34 34 35 35 33 32 31 31 32 34 33 32 31 33 34 33 33 34 34 33 32 30 29 28 27 26 23 21
21 22 22 24 26 26 26 28 29 29 30 32 33 33 32 32 34 34 33 33 33 32 33 35 35 34 33 33 34 33 31 30 30 31 32 31 31 29 27 25 23 20
21 21 23 25 26 27 27 28 27 28 29 30 33 33 32 32 35 35 33 32 33 34 35 36 36 35 34 33 33 32 31 30 30 32 32 30 30 28 26 23 21 19
21 22 23 27 29 27 26 27 27 28 28 29 31 32 32 33 35 35 33 32 33 34 35 35 35 35 34 33 33 32 30 29 31 32 31 29 27 26 24 22 19 18
21 22 22 25 30 29 26 27 28 28 29 29 29 30 32 33 34 34 33 31 31 33 33 33 33 33 33 32 32 31 29 30 30 31 29 28 26 25 23 21 18 17
21 23 23 24 29 31 29 28 29 29 29 28 28 29 30 32 33 33 33 31 31 31 32 32 32 32 31 31 31 29 28 30 30 29 28 27 26 23 21 19 19 18
23 24 27 28 28 30 30 30 31 30 29 28 27 27 28 29 31 32 32 31 31 31 33 33 32 31 30 30 29 27 27 28 29 27 26 26 24 22 20 19 20 20
24 24 27 30 30 29 29 30 30 29 29 28 27 27 27 28 30 31 31 30 31 32 32 32 31 31 30 29 28 28 27 27 27 26 26 25 24 22 21 21 21 20
24 25 25 27 29 29 28 28 28 28 28 28 28 28 28 29 29 29 29 29 30 31 31 31 31 30 28 28 28 28 28 27 26 26 26 26 24 24 23 23 22 20
24 27 26 26 28 29 28 27 27 28 29 29 28 28 28 29 29 28 27 27 29 30 30 30 29 29 28 26 27 28 28 28 27 27 27 26 25 26 25 24 22 19
25 28 29 28 28 29 28 27 27 28 28 28 28 28 28 28 29 28 27 27 28 29 30 30 29 29 28 26 26 27 28 28 29 28 27 26 26 26 25 24 21 19
25 27 30 30 29 29 29 28 28 28 28 27 27 27 28 28 28 28 27 27 28 29 31 31 30 29 28 27 26 27 27 28 29 28 27 26 26 25 24 21 19 18
25 25 27 29 29 29 29 29 29 28 27 28 28 28 28 29 28 27 27 27 28 29 31 32 31 30 29 28 28 28 29 29 29 28 27 26 25 24 21 19 18 17
25 25 25 27 27 28 28 29 29 28 28 27 27 27 28 28 27 27 27 27 28 29 30 31 30 29 29 30 30 30 30 30 30 29 28 26 24 22 20 19 18 18
25 25 25 26 27 26 27 28 28 28 27 27 27 27 26 26 26 26 25 26 26 27 28 29 28 29 31 32 32 33 32 31 31 30 28 27 25 23 21 20 20 20
24 25 25 26 27 28 28 27 26 26 26 26 26 26 25 25 25 25 25 26 26 26 28 28 29 30 31 33 34 35 34 33 31 30 29 28 27 25 23 22 21 21
24 25 25 26 27 28 28 27 26 25 25 25 24 24 24 24 24 24 25 26 26 26 28 29 30 30 31 32 33 34 34 34 32 31 30 28 26 25 25 24 23 21
25 25 26 26 27 27 27 26 25 25 24 24 23 23 23 23 23 24 24 25 26 26 27 28 29 29 29 30 31 32 33 34 33 32 29 26 25 25 25 25 23 22
25 25 26 26 26 26 26 25 25 24 24 24 23 22 22 22 22 22 22 24 25 26 26 27 27 28 29 29 30 31 31 32 31 30 28 26 26 26 25 24 24 22
23 24 25 25 25 25 25 24 24 24 24 23 22 22 21 21 22 22 22 23 24 25 25 25 26 27 27 28 30 31 30 29 28 28 28 28 27 26 25 24 22 19
23 24 24 24 25 25 24 24 24 23 23 22 22 21 21 21 21 21 22 22 22 23 23 24 25 25 25 26 28 28 27 26 26 27 27 26 26 25 23 20 17 14
22 23 23 24 24 24 24 24 23 23 22 22 21 20 19 19 19 20 21 21 21 21 21 22 23 23 22 23 24 25 26 25 24 24 24 24 25 24 20 16 13 11
21 23 23 23 24 24 24 23 23 22 22 21 20 20 19 18 18 18 19 19 19 20 20 20 20 19 19 20 21 24 25 24 22 22 22 22 23 22 18 13 10 8
20 22 23 23 24 25 24 23 22 22 21 20 20 20 19 18 18 17 17 17 18 19 19 20 18 17 17 18 20 21 22 22 22 21 20 20 20 19 15 11 9 10
19 22 23 24 24 24 23 22 22 21 20 19 18 18 19 18 17 16 16 17 17 17 18 18 17 17 17 19 20 20 20 20 20 20 18 18 18 16 13 11 12 13
19 21 23 23 23 23 22 21 21 20 19 19 18 18 18 17 16 16 16 16 16 16 16 15 15 16 18 19 20 20 19 19 19 19 18 18 18 16 15 14 15 16
Wind_Direction
223 221 225 225 222 220 220 220 221 222 223 223 224 226 228 229 225 221 219 220 222 223 222 221 219 218 219 220 217 213 210 210 210 210 210 210 211 212 212 209 208 208
223 223 225 224 222 223 224 225 225 225 226 226 227 229 231 229 224 221 221 223 225 226 224 222 220 219 218 218 216 212 210 212 211 212 213 213 213 214 215 213 212 213
223 223 226 224 222 225 228 229 229 228 228 227 227 228 227 226 222 221 222 226 228 227 225 224 223 221 218 218 216 210 209 212 212 214 215 214 214 214 214 215 215 214
224 224 228 228 225 224 227 229 228 228 229 230 230 227 225 226 224 223 226 229 229 228 227 225 224 222 219 217 215 212 210 213 215 216 215 213 213 213 213 214 213 209
223 224 227 227 225 223 223 225 225 226 228 230 232 231 229 229 227 227 231 232 230 230 229 226 223 222 219 217 216 214 212 214 216 216 212 209 210 211 211 211 207 203
220 220 220 220 221 221 221 223 226 228 230 232 234 234 233 231 229 230 233 232 231 231 229 226 224 221 219 219 216 212 212 213 214 212 208 206 206 206 206 205 199 196
218 219 221 223 222 222 222 225 228 230 232 234 234 233 234 234 235 235 234 233 232 230 228 226 225 222 219 217 213 208 209 210 209 207 203 203 202 198 195 194 192 190
218 219 224 226 225 224 225 227 228 228 229 231 232 234 237 239 238 236 235 235 232 228 226 225 224 222 217 214 208 204 205 206 206 202 198 198 196 192 187 186 187 186
218 219 223 227 226 227 228 228 227 227 228 230 232 235 237 237 237 237 237 235 231 226 223 222 222 220 216 210 205 204 205 205 202 199 198 196 192 187 185 183 183 179
217 220 223 226 228 229 228 226 226 228 229 230 231 233 235 236 237 238 236 232 228 224 219 219 220 218 214 209 206 206 207 204 199 197 197 195 191 188 186 183 181 176
219 223 224 225 227 229 228 225 226 229 229 229 231 234 236 238 238 237 233 229 227 224 219 217 217 216 213 209 207 207 206 202 198 195 193 191 190 189 186 182 180 176
218 221 223 224 226 229 229 226 226 228 229 229 232 236 238 238 237 234 231 229 227 224 220 217 215 215 213 209 207 205 201 197 193 190 188 188 189 187 184 181 177 172
215 217 220 221 223 227 229 227 226 229 230 231 233 235 235 236 235 232 230 229 226 223 220 217 215 215 213 209 207 205 200 194 190 187 186 186 186 184 180 177 172 166
216 217 219 219 220 223 224 224 225 229 231 231 230 231 233 232 232 230 229 227 225 221 219 217 215 213 212 209 207 204 200 195 190 187 186 185 184 182 177 171 165 160
217 217 218 218 217 217 219 220 223 226 227 227 227 229 231 230 229 230 228 224 221 217 214 213 211 211 211 209 206 203 199 196 192 191 189 187 182 177 172 167 161 159
217 217 217 217 216 216 218 219 221 223 224 224 226 228 230 230 228 229 227 221 216 213 211 212 212 212 214 213 210 205 201 197 194 191 190 188 181 172 169 167 163 163
214 214 214 214 215 216 216 217 218 221 221 221 223 225 227 229 227 226 225 220 215 212 212 214 215 215 216 214 210 207 204 199 194 191 189 185 179 174 171 168 165 166
212 211 211 211 211 212 213 213 216 217 217 218 219 222 225 226 225 225 223 219 215 213 215 217 217 217 216 211 207 206 204 200 196 192 187 182 179 179 175 170 169 172
212 211 209 207 207 209 210 211 212 213 214 217 219 222 223 223 222 223 221 219 216 215 217 219 219 219 215 211 207 206 204 202 199 194 189 185 183 180 176 174 175 177
212 209 208 206 204 206 207 208 210 211 213 216 218 219 220 220 219 219 219 218 216 215 216 218 219 220 216 213 210 207 205 203 200 196 193 190 185 180 179 179 179 182
209 207 205 203 202 202 203 204 207 208 210 213 216 217 218 217 217 216 216 216 216 215 215 216 219 219 218 216 213 207 203 200 197 196 194 189 183 181 180 178 179 184
206 203 200 199 198 197 198 201 204 205 206 209 210 212 214 214 214 215 214 212 212 213 214 216 220 220 219 218 213 207 203 200 198 195 191 186 183 180 177 176 180 191
202 199 196 195 195 194 194 197 199 201 202 204 204 203 205 207 208 209 211 210 209 211 213 215 217 217 215 214 209 205 203 200 198 194 190 186 182 178 177 181 189 209
198 197 194 192 192 193 193 194 196 197 199 202 202 200 199 201 203 204 207 208 210 211 213 213 212 209 207 206 204 203 202 199 196 193 189 185 180 179 185 196 210 231
195 195 193 191 190 191 192 192 192 194 196 196 196 196 195 198 201 202 202 204 207 210 211 212 210 207 205 204 202 201 201 198 196 193 187 184 184 189 200 213 227 242
191 190 190 190 189 188 189 190 189 189 189 187 188 191 193 193 196 198 197 198 201 204 206 208 207 202 202 204 205 203 201 199 197 193 188 187 192 202 214 226 239 250
Height
793 794 795 795 797 799 800 802 803 805 806 808 810 811 812 814 817 819 820 822 823 824 826 827 828 829 830 832 835 837 839 841 842 844 846 848 850 851 852 855 856 859
791 792 792 793 795 797 798 800 802 803 805 807 808 809 811 812 815 816 818 819 821 822 824 825 827 828 829 830 832 835 837 839 840 842 844 846 847 849 851 853 855 858
789 790 790 790 792 794 796 798 800 801 803 805 806 808 809 810 812 814 815 817 818 820 822 823 824 826 827 828 830 832 834 836 838 840 842 844 845 847 849 852 855 857
786 787 787 788 790 792 794 796 798 799 801 802 804 805 807 808 809 811 813 814 816 818 819 821 822 823 825 826 828 830 832 835 836 838 840 841 843 845 848 850 853 856
783 784 784 785 786 789 791 793 795 797 798 800 802 803 804 806 807 809 810 812 813 815 817 818 820 821 822 824 826 828 830 832 834 836 838 839 841 843 846 848 851 854
779 780 781 782 782 785 788 790 792 794 796 798 800 801 802 804 805 807 808 809 811 813 814 816 817 819 820 822 824 826 828 829 831 834 836 838 839 842 844 847 850 852
776 777 778 779 780 782 783 785 788 791 793 795 797 798 800 802 803 805 806 807 809 810 811 813 815 816 818 819 821 824 826 827 830 832 835 836 838 841 843 846 849 851
773 774 775 776 778 779 780 782 784 787 789 792 794 796 798 799 801 803 804 805 806 808 809 811 812 814 816 817 818 821 823 825 828 831 833 835 837 839 842 845 848 850
770 772 773 774 776 777 778 780 782 784 786 788 790 793 795 797 799 800 802 803 805 806 807 809 810 812 815 816 817 818 820 823 827 830 831 833 835 838 841 844 847 849
768 769 771 772 773 775 776 778 780 782 784 786 788 790 792 794 796 797 799 801 803 804 806 807 809 811 813 815 816 816 817 820 825 828 829 831 833 836 839 842 845 847
765 766 768 769 771 772 775 777 778 780 782 784 786 788 789 791 793 794 796 798 800 801 803 806 807 809 811 813 814 815 816 818 822 825 828 830 832 835 838 840 843 845
761 762 764 766 768 770 772 774 776 778 780 782 784 785 787 788 790 791 793 795 797 799 801 803 805 807 809 811 813 814 815 817 820 824 826 829 832 834 837 839 841 843
758 759 761 763 765 767 770 772 773 775 777 779 782 783 785 786 787 789 791 793 795 797 798 801 803 805 807 809 811 813 814 816 818 822 825 828 831 834 836 838 840 843
755 757 758 760 763 765 767 769 771 773 775 777 780 781 782 783 785 787 789 791 793 795 797 799 801 803 805 807 809 812 813 815 817 820 823 827 830 833 835 837 839 842
753 755 756 758 760 762 764 766 768 771 773 775 777 779 780 782 783 785 787 789 791 793 795 797 799 801 803 805 806 809 811 813 815 818 821 825 828 831 833 836 839 841
750 752 754 756 758 760 762 764 766 769 771 773 775 777 778 780 782 784 786 788 790 792 794 796 798 800 801 803 805 807 809 812 814 817 820 823 825 829 832 835 838 840
747 749 751 753 755 757 759 761 764 766 769 771 773 775 777 778 780 782 784 786 789 791 792 794 796 798 800 803 805 806 808 810 812 814 818 821 824 827 830 833 836 839
743 745 748 750 752 755 757 759 762 764 767 769 771 773 775 777 779 781 782 784 787 789 791 793 795 797 799 802 804 806 808 809 810 813 816 820 823 826 828 831 834 837
741 743 745 747 750 752 755 758 760 762 765 767 770 772 774 776 778 780 781 783 785 787 789 791 794 796 797 800 803 805 807 809 810 812 815 818 821 824 827 830 832 835
739 741 744 746 748 750 753 756 758 761 763 766 768 770 772 774 776 778 780 782 784 786 788 790 792 794 796 799 801 804 807 809 811 812 814 817 820 823 826 828 831 834
737 740 743 745 747 749 751 754 757 759 762 764 766 769 771 773 775 777 779 781 783 785 787 789 791 793 795 798 801 804 806 809 811 813 814 816 819 823 825 828 831 834
735 738 741 743 745 748 750 753 755 758 760 763 765 768 770 772 775 777 779 781 782 784 787 789 791 793 795 798 801 803 806 808 811 813 815 817 820 823 825 828 831 833
733 737 739 742 744 747 749 752 754 757 759 761 764 767 770 772 774 776 778 780 782 784 786 788 790 792 795 797 800 802 805 808 811 813 815 817 820 823 825 828 830 832
732 735 738 741 743 746 748 751 753 756 758 761 763 766 769 772 774 776 778 779 781 784 785 787 790 791 794 796 798 801 804 807 810 812 815 818 820 822 825 827 829 831
731 734 737 740 742 745 747 750 752 755 757 760 763 766 769 771 773 775 777 779 781 783 785 787 789 791 794 796 797 800 803 806 809 812 815 817 819 822 824 826 827 829
731 734 736 739 742 744 747 749 752 755 758 760 763 766 768 771 773 775 777 779 781 783 784 786 788 790 793 795 796 799 802 805 808 811 813 816 818 820 822 824 825 826